Flag for Switzerland Weather past 2 weeks in Kloten, Zurich, Switzerland

Now
28 °F

Partly sunny.


Feels Like: 25 °F
Forecast: 22 / 33 °F
Wind: 3 mph from Southeast

Location: Zurich-Kloten

Current Time: Jan 31, 2015 at 8:46:42 AM

Latest Report: Jan 31, 2015 at 8:20 AM


Visibility: N/A

Pressure: 29.06 "Hg

Humidity: 93%

Dew point: 27 °F

Location of KlotenLocation

Historic Weather in Kloten — Graph

°F

Kloten temperature yesterday

Maximum temperature yesterday: 36 °F (at 12:20 AM)
Minimum temperature yesterday: 32 °F (at 7:50 AM)
Average temperature yesterday: 34 °F

Past Weeks' High & Low Weather Summary

 TemperatureHumidityPressure
High45 °F (Jan 16, 1:20 PM)100% (Jan 17, 4:20 AM)30.42 "Hg (Jan 17, 4:20 AM)
Low23 °F (Jan 25, 7:20 AM)65% (Jan 28, 3:50 PM)28.82 "Hg (Jan 30, 12:50 AM)
Average33 °F89%29.88 "Hg
* Reported Jan 16 7:20 AM — Jan 31 7:50 AM, Kloten, Weather by CustomWeather, © 2014

Note: Actual official high and low records may vary slightly from our data, if they occured in-between our weather recording intervals... More about our weather records

Advertising

Kloten weather history for previous 24 hours

 ConditionsComfort  
Time TempWeatherWind HumidityBarometerVisibility
7:50 AM
Jan 31
27 °FPassing clouds.2 mph100%29.06 "HgN/A
7:20 AM30 °FPassing clouds.6 mph93%29.06 "HgN/A
6:50 AM28 °FPassing clouds.2 mph93%29.06 "HgN/A
6:20 AM30 °FPassing clouds.3 mph86%29.06 "HgN/A
5:50 AM32 °FPartly cloudy.2 mph87%29.06 "HgN/A
5:20 AM32 °FPassing clouds.5 mph93%29.06 "HgN/A
4:20 AM32 °FPartly cloudy.5 mph93%29.03 "HgN/A
3:50 AM34 °FPassing clouds.7 mph87%29.03 "HgN/A
3:20 AM34 °FPassing clouds.8 mph87%29.03 "HgN/A
2:50 AM34 °FSnow flurries. Passing clouds.6 mph87%29.03 "HgN/A
2:20 AM34 °FSnow flurries. Passing clouds.7 mph87%29.00 "HgN/A
1:50 AM34 °FSnow flurries. Passing clouds.6 mph87%29.00 "HgN/A
12:50 AM34 °FSnow flurries. Partly cloudy.7 mph87%29.00 "HgN/A
12:20 AM32 °FSnow flurries. Partly cloudy.7 mph93%29.00 "Hg6 mi
11:50 PM
Jan 30
34 °FSnow flurries. Partly cloudy.9 mph87%28.97 "Hg4 mi
11:20 PM34 °FSnow flurries. Partly cloudy.9 mph87%28.97 "Hg5 mi
10:50 PM32 °FSnow flurries. Partly cloudy.10 mph93%28.97 "Hg3 mi
10:20 PM34 °FLight snow. Partly cloudy.14 mph87%28.97 "HgN/A
9:50 PM34 °FScattered showers. Partly cloudy.12 mph87%28.94 "Hg5 mi
9:20 PM32 °FSnow flurries. Partly cloudy.13 mph93%28.94 "Hg3 mi
8:50 PM32 °FSnow flurries. Partly cloudy.12 mph93%28.94 "Hg2 mi
8:20 PM32 °FSnow flurries. Partly cloudy.7 mph93%28.94 "Hg2 mi
7:50 PM32 °FSnow flurries. Partly cloudy.7 mph93%28.94 "Hg1 mi
7:20 PM32 °FSnow flurries. Dense fog.8 mph93%28.94 "Hg1 mi
6:50 PM34 °FSnow flurries. Partly cloudy.7 mph81%28.91 "Hg2 mi
6:20 PM34 °FSnow flurries. Partly cloudy.9 mph87%28.91 "Hg4 mi
5:50 PM34 °FSnow flurries. Partly cloudy.9 mph81%28.91 "HgN/A
5:20 PM34 °FSnow flurries. Partly sunny.7 mph81%28.91 "Hg6 mi
4:50 PM36 °FScattered showers. Broken clouds.12 mph70%28.91 "HgN/A
4:20 PM36 °FScattered showers. Broken clouds.10 mph70%28.91 "HgN/A
3:50 PM36 °FScattered showers. Broken clouds.13 mph75%28.94 "HgN/A
3:20 PM36 °FBroken clouds.15 mph75%28.94 "HgN/A
2:50 PM36 °FBroken clouds.13 mph75%28.94 "HgN/A
2:20 PM36 °FBroken clouds.13 mph75%28.94 "HgN/A
1:50 PM36 °FScattered showers. Broken clouds.15 mph75%28.94 "HgN/A
1:20 PM36 °FScattered showers. Partly sunny.17 mph75%28.97 "HgN/A
12:50 PM36 °FPartly sunny.15 mph75%28.97 "HgN/A
12:20 PM34 °FBroken clouds.16 mph75%29.00 "HgN/A
11:50 AM34 °FBroken clouds.18 mph75%29.00 "HgN/A
11:20 AM34 °FSnow flurries. Broken clouds.16 mph75%29.03 "HgN/A
10:50 AM34 °FScattered showers. Partly sunny.16 mph75%29.03 "HgN/A
10:20 AM32 °FScattered showers. Partly sunny.9 mph75%29.03 "HgN/A
9:50 AM32 °FPartly sunny.8 mph75%29.03 "HgN/A
9:20 AM32 °FPartly sunny.7 mph75%29.06 "HgN/A
8:50 AM32 °FPartly sunny.9 mph69%29.06 "HgN/A
8:20 AM32 °FPartly sunny.14 mph69%29.06 "HgN/A
Weather by CustomWeather, © 2014

See weather overviewHow to use our weather pages